| time (UTC) | temp F | wind direction | speed knots | gust knots | rain 1hr in | rain 24hr in | rain mn in | humidity % | barometer mb |
| 20260510190024 | 54 | 250 | 0.9 | 2.6 | 0.00 | 0.00 | 0.00 | 66 | 1014.7 |
| 20260510185003 | 54 | 243 | 0.9 | 3.5 | 0.00 | 0.00 | 0.00 | 65 | 1014.6 |
| 20260510184003 | 55 | 239 | 0.9 | 3.5 | 0.00 | 0.00 | 0.00 | 64 | 1014.6 |
| 20260510183003 | 55 | 277 | 0.9 | 3.5 | 0.00 | 0.00 | 0.00 | 64 | 1014.6 |
| 20260510182003 | 56 | 286 | 0.9 | 2.6 | 0.00 | 0.00 | 0.00 | 63 | 1014.6 |
| 20260510181024 | 56 | 276 | 0.9 | 5.2 | 0.00 | 0.00 | 0.00 | 63 | 1014.7 |
| 20260510180003 | 56 | 256 | 0.9 | 6.1 | 0.00 | 0.00 | 0.00 | 63 | 1014.9 |
| 20260510175003 | 56 | 296 | 0.9 | 3.5 | 0.00 | 0.00 | 0.00 | 63 | 1014.8 |
| 20260510174003 | 57 | 274 | 0.9 | 3.5 | 0.00 | 0.00 | 0.00 | 63 | 1014.8 |
| 20260510173003 | 57 | 276 | 0.9 | 3.5 | 0.00 | 0.00 | 0.00 | 63 | 1015.0 |
| 20260510172003 | 56 | 249 | 1.7 | 7.0 | 0.00 | 0.00 | 0.00 | 62 | 1015.2 |
| 20260510171003 | 58 | 293 | 0.9 | 7.0 | 0.00 | 0.00 | 0.00 | 62 | 1015.2 |
| 20260510170003 | 57 | 276 | 0.9 | 7.0 | 0.00 | 0.00 | 0.00 | 63 | 1015.3 |
| 20260510165003 | 56 | 288 | 0.9 | 7.8 | 0.00 | 0.00 | 0.00 | 65 | 1015.3 |
| 20260510164003 | 56 | 261 | 1.7 | 7.8 | 0.00 | 0.00 | 0.00 | 65 | 1015.2 |
| 20260510163003 | 56 | 282 | 0.9 | 6.1 | 0.00 | 0.00 | 0.00 | 65 | 1015.4 |
| 20260510162003 | 56 | 273 | 1.7 | 6.1 | 0.00 | 0.00 | 0.00 | 66 | 1016.0 |
| 20260510161003 | 56 | 270 | 0.9 | 7.0 | 0.00 | 0.00 | 0.00 | 65 | 1015.8 |
| 20260510160003 | 56 | 268 | 1.7 | 7.0 | 0.00 | 0.00 | 0.00 | 65 | 1015.9 |
| 20260510155003 | 55 | 268 | 0.9 | 5.2 | 0.00 | 0.00 | 0.00 | 67 | 1016.0 |
| 20260510154003 | 55 | 298 | 0.9 | 6.1 | 0.00 | 0.00 | 0.00 | 67 | 1016.4 |
| 20260510153003 | 55 | 271 | 1.7 | 6.1 | 0.00 | 0.00 | 0.00 | 69 | 1016.1 |
| 20260510152003 | 54 | 283 | 0.9 | 5.2 | 0.00 | 0.00 | 0.00 | 71 | 1016.5 |
| 20260510151024 | 54 | 295 | 0.9 | 5.2 | 0.00 | 0.00 | 0.00 | 71 | 1016.6 |
| 20260510150024 | 55 | 263 | 1.7 | 5.2 | 0.00 | 0.00 | 0.00 | 71 | 1016.6 |
| 20260510145003 | 55 | 279 | 1.7 | 5.2 | 0.00 | 0.00 | 0.00 | 71 | 1016.7 |
| 20260510144024 | 55 | 289 | 0.9 | 5.2 | 0.00 | 0.00 | 0.00 | 72 | 1017.0 |
| 20260510143003 | 54 | 262 | 1.7 | 7.8 | 0.00 | 0.00 | 0.00 | 72 | 1016.8 |
| 20260510142002 | 54 | 237 | 1.7 | 6.1 | 0.00 | 0.00 | 0.00 | 73 | 1016.9 |
| 20260510141025 | 54 | 275 | 0.9 | 6.1 | 0.00 | 0.00 | 0.00 | 73 | 1017.1 |
| 20260510140005 | 54 | 285 | 0.9 | 5.2 | 0.00 | 0.00 | 0.00 | 73 | 1017.3 |
| 20260510135003 | 54 | 268 | 1.7 | 7.0 | 0.00 | 0.00 | 0.00 | 75 | 1017.2 |
| 20260510134002 | 54 | 242 | 1.7 | 7.0 | 0.00 | 0.00 | 0.00 | 75 | 1017.1 |
| 20260510133005 | 54 | 242 | 2.6 | 7.0 | 0.00 | 0.00 | 0.00 | 74 | 1017.1 |
| 20260510132002 | 54 | 221 | 1.7 | 6.1 | 0.00 | 0.00 | 0.00 | 73 | 1017.2 |
| 20260510131002 | 54 | 255 | 2.6 | 7.8 | 0.00 | 0.00 | 0.00 | 74 | 1017.3 |
| 20260510130002 | 55 | 272 | 2.6 | 8.7 | 0.00 | 0.00 | 0.00 | 73 | 1016.9 |
| 20260510125002 | 55 | 259 | 2.6 | 7.8 | 0.00 | 0.00 | 0.00 | 72 | 1016.8 |
| 20260510124002 | 55 | 271 | 2.6 | 7.8 | 0.00 | 0.00 | 0.00 | 73 | 1017.2 |
| 20260510123002 | 55 | 245 | 2.6 | 7.8 | 0.00 | 0.00 | 0.00 | 73 | 1017.2 |
| 20260510122002 | 55 | 278 | 1.7 | 6.1 | 0.00 | 0.00 | 0.00 | 72 | 1017.3 |
| 20260510121002 | 55 | 264 | 2.6 | 9.6 | 0.00 | 0.00 | 0.00 | 71 | 1017.4 |
| 20260510120002 | 55 | 250 | 1.7 | 8.7 | 0.00 | 0.00 | 0.00 | 70 | 1017.4 |
| 20260510115002 | 56 | 276 | 2.6 | 9.6 | 0.00 | 0.00 | 0.00 | 67 | 1017.7 |
| 20260510114002 | 56 | 284 | 2.6 | 8.7 | 0.00 | 0.00 | 0.00 | 69 | 1017.7 |
| 20260510113002 | 56 | 268 | 1.7 | 7.0 | 0.00 | 0.00 | 0.00 | 69 | 1017.7 |
| 20260510112002 | 56 | 291 | 2.6 | 7.8 | 0.00 | 0.00 | 0.00 | 72 | 1017.5 |
| 20260510111002 | 55 | 257 | 2.6 | 7.8 | 0.00 | 0.00 | 0.00 | 72 | 1017.7 |
| 20260510110023 | 55 | 264 | 3.5 | 12.2 | 0.00 | 0.00 | 0.00 | 73 | 1017.8 |
| 20260510105002 | 54 | 275 | 3.5 | 10.4 | 0.00 | 0.00 | 0.00 | 74 | 1017.8 |
| 20260510104023 | 54 | 257 | 2.6 | 7.0 | 0.00 | 0.00 | 0.00 | 75 | 1018.0 |
| 20260510103023 | 54 | 232 | 3.5 | 12.2 | 0.00 | 0.00 | 0.00 | 75 | 1018.1 |
| 20260510102002 | 54 | 251 | 2.6 | 7.0 | 0.00 | 0.00 | 0.00 | 75 | 1018.0 |
| 20260510101002 | 54 | 231 | 2.6 | 7.0 | 0.00 | 0.00 | 0.00 | 75 | 1018.0 |
| 20260510100002 | 54 | 275 | 1.7 | 9.6 | 0.00 | 0.00 | 0.00 | 71 | 1018.3 |
| 20260510095002 | 54 | 251 | 1.7 | 7.0 | 0.00 | 0.00 | 0.00 | 70 | 1018.1 |
| 20260510094023 | 54 | 281 | 2.6 | 8.7 | 0.00 | 0.00 | 0.00 | 70 | 1018.1 |
| 20260510093002 | 55 | 293 | 1.7 | 7.8 | 0.00 | 0.00 | 0.00 | 71 | 1018.3 |
| 20260510092002 | 54 | 303 | 2.6 | 7.0 | 0.00 | 0.00 | 0.00 | 72 | 1018.1 |
| 20260510091002 | 57 | 291 | 1.7 | 8.7 | 0.00 | 0.00 | 0.00 | 70 | 1017.9 |
| 20260510090002 | 56 | 261 | 1.7 | 7.8 | 0.00 | 0.00 | 0.00 | 68 | 1018.4 |
| 20260510085002 | 55 | 308 | 1.7 | 8.7 | 0.00 | 0.00 | 0.00 | 69 | 1018.1 |
| 20260510084002 | 54 | 310 | 1.7 | 8.7 | 0.00 | 0.00 | 0.00 | 71 | 1018.4 |
| 20260510083002 | 56 | 308 | 1.7 | 6.1 | 0.00 | 0.00 | 0.00 | 73 | 1018.4 |
| 20260510082002 | 54 | 297 | 1.7 | 7.8 | 0.00 | 0.00 | 0.00 | 73 | 1018.5 |
| 20260510081002 | 53 | 285 | 1.7 | 7.8 | 0.00 | 0.00 | 0.00 | 74 | 1018.5 |
| 20260510080023 | 52 | 299 | 1.7 | 7.8 | 0.00 | 0.00 | 0.00 | 74 | 1018.5 |
| 20260510075002 | 52 | 282 | 0.9 | 6.1 | 0.00 | 0.00 | 0.00 | 76 | 1018.5 |
| 20260510074002 | 51 | 296 | 1.7 | 7.8 | 0.00 | 0.00 | 0.00 | 78 | 1018.5 |
| 20260510073002 | 52 | 276 | 1.7 | 7.8 | 0.00 | 0.00 | 0.00 | 78 | 1018.5 |
| 20260510072002 | 51 | 282 | 1.7 | 8.7 | 0.00 | 0.00 | 0.00 | 79 | 1018.4 |
| 20260510071002 | 51 | 279 | 1.7 | 8.7 | 0.00 | 0.00 | 0.00 | 79 | 1018.5 |
| 20260510070002 | 51 | 279 | 2.6 | 7.8 | 0.00 | 0.00 | 0.00 | 79 | 1018.5 |
| 20260510065002 | 50 | 291 | 1.7 | 9.6 | 0.00 | 0.00 | 0.00 | 80 | 1018.5 |
| 20260510064002 | 50 | 292 | 1.7 | 7.0 | 0.00 | 0.00 | 0.00 | 81 | 1018.5 |
| 20260510063002 | 50 | 282 | 1.7 | 7.0 | 0.00 | 0.00 | 0.00 | 81 | 1018.6 |
| 20260510062002 | 50 | 264 | 2.6 | 10.4 | 0.00 | 0.00 | 0.00 | 81 | 1018.5 |
| 20260510061002 | 50 | 290 | 1.7 | 7.8 | 0.00 | 0.00 | 0.00 | 81 | 1018.3 |
| 20260510060002 | 50 | 279 | 2.6 | 7.0 | 0.00 | 0.00 | 0.00 | 82 | 1018.3 |
| 20260510055023 | 49 | 291 | 2.6 | 10.4 | 0.00 | 0.00 | 0.00 | 83 | 1018.1 |
| 20260510054002 | 49 | 281 | 2.6 | 10.4 | 0.00 | 0.00 | 0.00 | 83 | 1018.0 |
| 20260510053002 | 49 | 297 | 2.6 | 8.7 | 0.00 | 0.00 | 0.00 | 84 | 1017.9 |
| 20260510052002 | 49 | 295 | 2.6 | 7.0 | 0.00 | 0.00 | 0.00 | 84 | 1018.5 |
| 20260510051002 | 49 | 294 | 2.6 | 8.7 | 0.00 | 0.00 | 0.00 | 85 | 1018.1 |
| 20260510050002 | 48 | 313 | 1.7 | 8.7 | 0.00 | 0.00 | 0.00 | 85 | 1018.3 |
| 20260510045002 | 48 | 323 | 1.7 | 13.0 | 0.00 | 0.00 | 0.00 | 85 | 1017.9 |
| 20260510044002 | 48 | 297 | 1.7 | 7.8 | 0.00 | 0.00 | 0.00 | 85 | 1018.3 |
| 20260510043002 | 49 | 294 | 1.7 | 7.8 | 0.00 | 0.00 | 0.00 | 85 | 1018.5 |
| 20260510042003 | 49 | 283 | 1.7 | 7.0 | 0.00 | 0.00 | 0.00 | 85 | 1018.5 |
| 20260510041002 | 48 | 301 | 1.7 | 8.7 | 0.00 | 0.00 | 0.00 | 85 | 1018.3 |
| 20260510040002 | 48 | 286 | 0.9 | 7.0 | 0.00 | 0.00 | 0.00 | 86 | 1018.5 |
| 20260510035002 | 48 | 275 | 1.7 | 6.1 | 0.00 | 0.00 | 0.00 | 86 | 1018.4 |
| 20260510034023 | 48 | 275 | 0.9 | 5.2 | 0.00 | 0.00 | 0.00 | 86 | 1018.5 |
| 20260510033002 | 49 | 283 | 0.9 | 3.5 | 0.00 | 0.00 | 0.00 | 86 | 1018.6 |
| 20260510032023 | 49 | 293 | 0.9 | 7.0 | 0.00 | 0.00 | 0.00 | 86 | 1018.5 |
| 20260510031003 | 49 | 296 | 0.9 | 3.5 | 0.00 | 0.00 | 0.00 | 86 | 1018.5 |
| 20260510030024 | 49 | 275 | 1.7 | 7.8 | 0.00 | 0.00 | 0.00 | 85 | 1018.5 |
| 20260510025002 | 49 | 279 | 0.9 | 5.2 | 0.00 | 0.00 | 0.00 | 86 | 1018.4 |
| 20260510024003 | 49 | 301 | 0.9 | 5.2 | 0.00 | 0.00 | 0.00 | 86 | 1018.5 |
| 20260510023003 | 50 | 281 | 1.7 | 7.0 | 0.00 | 0.00 | 0.00 | 86 | 1018.4 |
| 20260510022023 | 50 | 215 | 1.7 | 7.0 | 0.00 | 0.00 | 0.00 | 86 | 1018.3 |
| 20260510021003 | 50 | 267 | 1.7 | 9.6 | 0.00 | 0.00 | 0.00 | 85 | 1018.1 |
| 20260510020003 | 50 | 247 | 1.7 | 6.1 | 0.00 | 0.00 | 0.00 | 84 | 1018.0 |
| 20260510015003 | 50 | 270 | 0.9 | 6.1 | 0.00 | 0.00 | 0.00 | 85 | 1018.4 |
| 20260510014002 | 51 | 270 | 1.7 | 7.0 | 0.00 | 0.00 | 0.00 | 85 | 1018.1 |
| 20260510013023 | 51 | 270 | 1.7 | 7.0 | 0.00 | 0.00 | 0.00 | 84 | 1018.3 |
| 20260510012002 | 51 | 283 | 1.7 | 7.0 | 0.00 | 0.00 | 0.00 | 85 | 1018.0 |
| 20260510011024 | 51 | 246 | 1.7 | 7.0 | 0.00 | 0.00 | 0.00 | 85 | 1018.0 |
| 20260510010003 | 51 | 313 | 0.9 | 7.0 | 0.00 | 0.00 | 0.00 | 86 | 1017.9 |
| 20260510005002 | 52 | 271 | 2.6 | 7.0 | 0.00 | 0.00 | 0.00 | 85 | 1017.8 |
| 20260510004002 | 52 | 302 | 1.7 | 7.0 | 0.00 | 0.00 | 0.00 | 85 | 1017.7 |
| 20260510003003 | 52 | 259 | 1.7 | 6.1 | 0.00 | 0.00 | 0.00 | 85 | 1018.0 |
| 20260510002002 | 52 | 315 | 1.7 | 7.8 | 0.00 | 0.00 | 0.00 | 85 | 1018.0 |
| 20260510001002 | 53 | 303 | 1.7 | 7.0 | 0.00 | 0.00 | 0.00 | 85 | 1017.9 |
| 20260510000003 | 53 | 221 | 1.7 | 7.0 | 0.00 | 0.00 | 0.00 | 85 | 1017.8 |
| 20260509235002 | 54 | 287 | 2.6 | 7.0 | 0.00 | 0.00 | 0.00 | 84 | 1017.8 |
| 20260509234002 | 54 | 301 | 2.6 | 7.0 | 0.00 | 0.00 | 0.00 | 84 | 1017.6 |
| 20260509233003 | 54 | 306 | 2.6 | 9.6 | 0.00 | 0.00 | 0.00 | 84 | 1017.6 |
| 20260509232003 | 54 | 281 | 2.6 | 9.6 | 0.00 | 0.00 | 0.00 | 84 | 1017.5 |
| 20260509231024 | 55 | 264 | 2.6 | 10.4 | 0.00 | 0.00 | 0.00 | 84 | 1017.4 |
| 20260509230024 | 55 | 272 | 2.6 | 10.4 | 0.00 | 0.00 | 0.00 | 84 | 1017.5 |
| 20260509225003 | 55 | 323 | 2.6 | 10.4 | 0.00 | 0.00 | 0.00 | 83 | 1017.3 |
| 20260509224024 | 56 | 291 | 2.6 | 10.4 | 0.00 | 0.00 | 0.00 | 83 | 1017.3 |
| 20260509223024 | 56 | 227 | 2.6 | 9.6 | 0.00 | 0.00 | 0.00 | 82 | 1017.0 |
| 20260509222003 | 56 | 280 | 1.7 | 7.8 | 0.00 | 0.00 | 0.00 | 82 | 1017.2 |
| 20260509221024 | 57 | 242 | 1.7 | 7.8 | 0.00 | 0.00 | 0.00 | 82 | 1017.4 |
| 20260509220003 | 57 | 278 | 1.7 | 7.8 | 0.00 | 0.00 | 0.00 | 83 | 1017.1 |
| 20260509215024 | 57 | 272 | 2.6 | 9.6 | 0.00 | 0.00 | 0.00 | 82 | 1017.3 |
| 20260509214003 | 57 | 229 | 2.6 | 8.7 | 0.00 | 0.00 | 0.00 | 81 | 1017.3 |
| 20260509213003 | 57 | 234 | 2.6 | 8.7 | 0.00 | 0.00 | 0.00 | 81 | 1017.3 |
| 20260509212003 | 58 | 242 | 2.6 | 8.7 | 0.00 | 0.00 | 0.00 | 80 | 1017.4 |
| 20260509211003 | 58 | 231 | 1.7 | 7.0 | 0.00 | 0.00 | 0.00 | 80 | 1017.2 |
| 20260509210003 | 58 | 246 | 2.6 | 7.8 | 0.00 | 0.00 | 0.00 | 79 | 1017.0 |
| 20260509205024 | 58 | 260 | 2.6 | 7.8 | 0.00 | 0.00 | 0.00 | 79 | 1017.0 |
| 20260509204003 | 59 | 243 | 2.6 | 7.0 | 0.00 | 0.00 | 0.00 | 78 | 1017.0 |
| 20260509203003 | 60 | 243 | 2.6 | 7.8 | 0.00 | 0.00 | 0.00 | 77 | 1016.8 |
| 20260509202003 | 60 | 243 | 2.6 | 7.8 | 0.00 | 0.00 | 0.00 | 76 | 1016.8 |
| 20260509201003 | 60 | 244 | 2.6 | 7.8 | 0.00 | 0.00 | 0.00 | 75 | 1016.9 |
| 20260509200003 | 61 | 256 | 2.6 | 9.6 | 0.00 | 0.00 | 0.00 | 71 | 1016.7 |
| 20260509195003 | 61 | 250 | 0.9 | 5.2 | 0.00 | 0.00 | 0.00 | 63 | 1016.7 |
| 20260509194003 | 62 | 240 | 0.9 | 3.5 | 0.00 | 0.00 | 0.00 | 62 | 1016.4 |
| 20260509193003 | 62 | 248 | 0.9 | 2.6 | 0.00 | 0.00 | 0.00 | 62 | 1016.3 |
| 20260509192003 | 62 | 240 | 0.9 | 3.5 | 0.00 | 0.00 | 0.00 | 61 | 1016.4 |
| 20260509191003 | 63 | 236 | 0.9 | 3.5 | 0.00 | 0.00 | 0.00 | 60 | 1016.4 |